Weather in Dagestanskaya

Russia / Republic of Adygea     44°22′29″N   40°01′12″E
temp.,
°C
wind,
m/s
gust,
m/s
humid.,
%
clouds,
%
prec.,
mm/h
press.,
hPa
HPBL,
m
14 august, sun
sun1400:00+21s227012 0.0 100723
03:00+20s22710 0.0 100729
06:00+20s22770 0.0 100719
09:00+26nw235914 0.0 1006649
12:00+22ssw118966 0.8 100735
15:00+27n22566 1.1 10061072
18:00+25n12762 0.6 1006109
21:00+19sse32930 2.5 100632
15 august, mon
mon1500:00+19s22910 0.0 100625
03:00+18s22905 0.0 100625
06:00+19s22861 0.0 100618
09:00+26n115980 0.0 1006490
12:00+29n224821 0.0 10061153
15:00+31nne23431 0.0 10051651
18:00+27nw12671 0.0 100561
21:00+22s22730 0.0 100624
16 august, tue
tue1600:00+21ssw22740 0.2 100716
03:00+19s229012 0.4 100936
06:00+20sse23876 0.0 101048
09:00+24n227451 0.3 1011785
12:00+24nnw227462 0.6 1011713
15:00+24sw118740 3.5 101195
18:00+25sse01740 0.7 1011108
21:00+21s22810 0.8 101227
17 august, wed
wed1700:00+20s22790 0.0 101221
03:00+19s22800 0.0 101220
06:00+18sse21820 0.0 101217
09:00+25nne11600 0.0 1011539
12:00+29n22485 0.0 10101579
15:00+30nne244392 0.1 10082159
18:00+25ssw226691 0.4 100922
21:00+22s21762 0.6 101014
18 august, thu
thu1800:00+19sse22910 0.6 101017
03:00+18s22952 2.9 101021
06:00+18sse11942 2.2 101018
09:00+24nnw11721 2.3 1010434
12:00+26nnw227586 2.1 1009804
15:00+25se127868 8.4 1009580
18:00+21n239432 5.3 1009210
21:00+18sse239727 6.3 101089